ANIK F2

Last updated on Wed Sep 09 2026 00:02:58 GMT+0000 (Coordinated Universal Time)

1 28378U 04027A 26251.49440216 -.00000070 00000+0 00000+0 0 9993 2 28378 3.4971 78.3302 0002969 83.0752 253.0322 1.00271768 42092
UTC large
Height (km)
Speed (km/s)
/
Latitude / Longitude
Inclination (degrees)
Orbital Period (minutes)
Azimuth
Elevation
Range (km)
Doppler Factor

Next 0 passes for location: London (51.5072 / 0.1276)

No passes found over London.
ANIK F2